Weather History for KLOT - May, 2014

Change the Weather History Date:

Friday, May 23, 2014

  Actual Average Record
Temperature  
Mean Temperature 60 °F 63 °F  
Max Temperature 71 °F 73 °F 90 °F (2010)
Min Temperature 49 °F 52 °F 40 °F (1992)
Degree Days  
Heating Degree Days 5 5  
Month to date heating degree days 196 163  
Since 1 July heating degree days 7314 6157  
Cooling Degree Days 0 2  
Month to date cooling degree days 51 31  
Year to date cooling degree days 51 36  
Growing Degree Days 8 (Base 50)    
Moisture  
Dew Point 46 °F    
Average Humidity 64    
Maximum Humidity 93    
Minimum Humidity 41    
Precipitation  
Precipitation 0.00 in 0.14 in 1.40 in (1995)
Month to date precipitation 3.25 3.16  
Year to date precipitation 14.03 13.60  
Sea Level Pressure  
Sea Level Pressure 30.18 in    
Wind  
Wind Speed 5 mph (ENE)    
Max Wind Speed 15 mph    
Max Gust Speed -    
Visibility 10 miles    
Events      
T = Trace of Precipitation, MM = Missing Value Source: NWS Daily Summary

Daily Weather History Graph

Daily Weather History Graph

Search for Another Location

Airport or City:

Trip Planner

Search our weather history database for the weather conditions in past years. The results will help you decide how hot, cold, wet, or windy it might be!

Date:

Astronomy

May. 23, 2014 Rise Set
Actual Time 5:26 AM CDT 8:12 PM CDT
Civil Twilight 4:53 AM CDT 8:45 PM CDT
Nautical Twilight 4:12 AM CDT 9:26 PM CDT
Astronomical Twilight 3:25 AM CDT 10:13 PM CDT
Moon 2:24 AM CDT (5/23) 3:01 PM CDT (5/23)
Length of Visible Light 15h 51m
Length of Day
14h 46m
Waning Crescent, 27% of the Moon is Illuminated
May 23
Waning Crescent
May 28
New
Jun 5
First Quarter
Jun 12
Full
Jun 19
Last Quarter

Hourly Weather History & Observations

Time (CDT) Temp. Dew Point Humidity Pressure Visibility Wind Dir Wind Speed Gust Speed Precip Events Conditions
12:15 AM 52.9 °F 46.0 °F 78% 30.12 in 10.0 mi South 3.5 mph - N/A   Clear
12:35 AM 52.7 °F 45.9 °F 78% 30.13 in 10.0 mi South 3.5 mph - N/A   Clear
12:55 AM 52.0 °F 46.0 °F 80% 30.13 in 10.0 mi Calm Calm - N/A   Clear
1:15 AM 49.8 °F 45.3 °F 84% 30.13 in 10.0 mi NE 3.5 mph - N/A   Clear
1:35 AM 49.8 °F 45.7 °F 86% 30.13 in 10.0 mi NE 4.6 mph - N/A   Clear
1:55 AM 50.5 °F 46.4 °F 86% 30.13 in 10.0 mi Calm Calm - N/A   Clear
2:15 AM 52.3 °F 46.2 °F 80% 30.13 in 10.0 mi NNW 3.5 mph - N/A   Clear
2:35 AM 50.4 °F 45.5 °F 83% 30.13 in 10.0 mi Calm Calm - N/A   Clear
2:55 AM 51.6 °F 46.4 °F 82% 30.13 in 10.0 mi Calm Calm - N/A   Clear
3:15 AM 51.1 °F 46.4 °F 84% 30.13 in 10.0 mi NW 3.5 mph - N/A   Clear
3:35 AM 50.2 °F 46.9 °F 89% 30.13 in 10.0 mi WNW 3.5 mph - N/A   Clear
3:55 AM 50.0 °F 47.3 °F 90% 30.14 in 10.0 mi NW 3.5 mph - N/A   Clear
4:15 AM 50.9 °F 47.5 °F 88% 30.14 in 10.0 mi Calm Calm - N/A   Clear
4:35 AM 49.6 °F 47.1 °F 91% 30.14 in 10.0 mi NNE 3.5 mph - N/A   Clear
4:55 AM 50.2 °F 48.0 °F 92% 30.14 in 10.0 mi Calm Calm - N/A   Clear
5:15 AM 48.2 °F 46.4 °F 93% 30.13 in 10.0 mi NE 4.6 mph - N/A   Clear
5:35 AM 47.7 °F 45.7 °F 93% 30.16 in 10.0 mi ENE 4.6 mph - N/A   Clear
5:55 AM 49.6 °F 47.3 °F 92% 30.17 in 10.0 mi NE 3.5 mph - N/A   Clear
6:15 AM 50.5 °F 48.2 °F 92% 30.17 in 10.0 mi ENE 4.6 mph - N/A   Clear
6:35 AM 52.3 °F 47.7 °F 84% 30.17 in 10.0 mi East 4.6 mph - N/A   Clear
6:55 AM 53.6 °F 48.4 °F 82% 30.17 in 10.0 mi ENE 4.6 mph - N/A   Clear
7:15 AM 55.2 °F 48.2 °F 77% 30.18 in 10.0 mi East 5.8 mph - N/A   Clear
7:35 AM 56.7 °F 48.4 °F 74% 30.19 in 10.0 mi North 3.5 mph - N/A   Clear
7:55 AM 57.7 °F 48.7 °F 72% 30.19 in 10.0 mi Calm Calm - N/A   Clear
8:15 AM 58.8 °F 48.6 °F 69% 30.19 in 10.0 mi Calm Calm - N/A   Clear
8:35 AM 60.3 °F 49.1 °F 67% 30.20 in 10.0 mi Calm Calm - N/A   Clear
8:55 AM 61.2 °F 48.2 °F 62% 30.19 in 10.0 mi NNE 3.5 mph - N/A   Clear
9:15 AM 61.9 °F 48.0 °F 60% 30.21 in 10.0 mi Calm Calm - N/A   Clear
9:35 AM 63.9 °F 49.3 °F 59% 30.21 in 10.0 mi Calm Calm - N/A   Clear
9:55 AM 64.4 °F 47.3 °F 54% 30.20 in 10.0 mi North 4.6 mph - N/A   Clear
10:15 AM 65.8 °F 48.6 °F 54% 30.19 in 10.0 mi NNE 6.9 mph - N/A   Clear
10:35 AM 66.2 °F 47.8 °F 52% 30.19 in 10.0 mi North 6.9 mph - N/A   Clear
10:55 AM 66.6 °F 47.8 °F 51% 30.20 in 10.0 mi North 5.8 mph - N/A   Mostly Cloudy
11:15 AM 68.0 °F 48.2 °F 49% 30.19 in 10.0 mi North 6.9 mph - N/A   Mostly Cloudy
11:35 AM 66.6 °F 46.4 °F 48% 30.19 in 10.0 mi NNE 3.5 mph - N/A   Mostly Cloudy
11:55 AM 68.0 °F 46.9 °F 47% 30.19 in 10.0 mi NNE 6.9 mph - N/A   Scattered Clouds
12:15 PM 66.9 °F 46.8 °F 48% 30.19 in 10.0 mi NNE 9.2 mph - N/A   Mostly Cloudy
12:35 PM 68.2 °F 48.9 °F 50% 30.19 in 10.0 mi NE 10.4 mph - N/A   Mostly Cloudy
12:55 PM 69.1 °F 48.6 °F 48% 30.20 in 10.0 mi East 11.5 mph - N/A   Mostly Cloudy
1:15 PM 67.8 °F 48.0 °F 49% 30.19 in 10.0 mi East 9.2 mph - N/A   Scattered Clouds
1:35 PM 68.0 °F 46.4 °F 46% 30.19 in 10.0 mi East 10.4 mph - N/A   Scattered Clouds
1:55 PM 68.9 °F 46.4 °F 44% 30.19 in 10.0 mi East 9.2 mph - N/A   Clear
2:15 PM 69.1 °F 45.9 °F 43% 30.19 in 10.0 mi NNE 10.4 mph - N/A   Clear
2:35 PM 68.7 °F 45.1 °F 43% 30.19 in 10.0 mi NE 5.8 mph - N/A   Clear
2:55 PM 69.6 °F 45.7 °F 42% 30.19 in 10.0 mi ENE 10.4 mph - N/A   Clear
3:15 PM 69.6 °F 45.7 °F 42% 30.19 in 10.0 mi East 9.2 mph - N/A   Clear
3:35 PM 70.0 °F 45.0 °F 41% 30.18 in 10.0 mi East 9.2 mph - N/A   Clear
3:55 PM 69.6 °F 46.0 °F 43% 30.18 in 10.0 mi ENE 9.2 mph - N/A   Clear
4:15 PM 69.4 °F 44.6 °F 41% 30.17 in 10.0 mi East 9.2 mph - N/A   Clear
4:35 PM 68.7 °F 44.6 °F 42% 30.17 in 10.0 mi East 9.2 mph - N/A   Clear
4:55 PM 68.2 °F 44.8 °F 43% 30.17 in 10.0 mi East 10.4 mph - N/A   Clear
5:15 PM 68.2 °F 44.6 °F 43% 30.17 in 10.0 mi East 11.5 mph - N/A   Clear
5:35 PM 67.3 °F 44.4 °F 44% 30.17 in 10.0 mi East 10.4 mph - N/A   Clear
5:55 PM 66.4 °F 44.1 °F 44% 30.18 in 10.0 mi ENE 10.4 mph - N/A   Clear
6:15 PM 66.4 °F 45.9 °F 48% 30.17 in 10.0 mi East 12.7 mph - N/A   Clear
6:35 PM 64.4 °F 44.8 °F 49% 30.17 in 10.0 mi East 11.5 mph - N/A   Clear
6:55 PM 62.8 °F 44.8 °F 52% 30.17 in 10.0 mi East 13.8 mph - N/A   Clear
7:15 PM 61.5 °F 44.8 °F 54% 30.17 in 10.0 mi ENE 15.0 mph - N/A   Clear
7:35 PM 60.3 °F 44.1 °F 55% 30.17 in 10.0 mi NE 12.7 mph - N/A   Clear
7:55 PM 58.5 °F 43.7 °F 58% 30.18 in 10.0 mi East 12.7 mph - N/A   Clear
8:15 PM 57.2 °F 43.7 °F 61% 30.18 in 10.0 mi ENE 9.2 mph - N/A   Clear
8:35 PM 56.5 °F 43.7 °F 62% 30.19 in 10.0 mi ENE 8.1 mph - N/A   Clear
8:55 PM 55.8 °F 42.8 °F 62% 30.19 in 10.0 mi ENE 11.5 mph - N/A   Clear
9:15 PM 54.7 °F 41.9 °F 62% 30.19 in 10.0 mi ENE 10.4 mph - N/A   Clear
9:35 PM 54.1 °F 41.2 °F 62% 30.20 in 10.0 mi ENE 10.4 mph - N/A   Clear
9:55 PM 53.6 °F 41.4 °F 63% 30.21 in 10.0 mi East 6.9 mph - N/A   Clear
10:15 PM 52.2 °F 41.5 °F 67% 30.20 in 10.0 mi East 5.8 mph - N/A   Clear
10:35 PM 51.6 °F 41.5 °F 68% 30.21 in 10.0 mi East 3.5 mph - N/A   Clear
10:55 PM 51.8 °F 41.0 °F 67% 30.21 in 10.0 mi East 5.8 mph - N/A   Clear
11:15 PM 49.1 °F 41.4 °F 75% 30.21 in 10.0 mi NE 4.6 mph - N/A   Clear
11:35 PM 49.1 °F 41.9 °F 76% 30.21 in 10.0 mi NE 4.6 mph - N/A   Clear
11:55 PM 48.7 °F 41.5 °F 76% 30.21 in 10.0 mi Calm Calm - N/A   Clear